This demonstration page uses our WeatherBlox Daily Observations layout. Learn more.

Left ArrowRight Arrow

Hourly Observations for July 4, 2022

Temp ( °F °C ) Dew Point ( °F °C ) Humidity (%) Winds ( mph kmh ) Pressure ( in mb ) Visibility ( mi km ) Precip ( " mm )
12:53 am 00:53 Clear 80 26.7 61 16.1 52 52 SE 16 26 29.85 1011 10 16 0.00 0.00
1:53 am 01:53 Clear 79 26.1 62 16.7 56 56 SE 12 19 29.85 1011 10 16 0.00 0.00
2:53 am 02:53 Clear 78 25.6 62 16.7 58 58 SE 13 20 29.84 1010 10 16 0.00 0.00
3:53 am 03:53 Clear 77 25 62 16.7 60 60 ESE 12 19 29.83 1010 10 16 0.00 0.00
4:53 am 04:53 Clear 77 25 63 17.2 62 62 SE 15 24 29.83 1010 10 16 0.00 0.00
5:53 am 05:53 Clear 77 25 65 18.3 66 66 SE 16 26 29.83 1010 10 16 0.00 0.00
6:53 am 06:53 Sunny 76 24.4 67 19.4 74 74 SE 18 30 29.84 1011 10 16 0.00 0.00
7:53 am 07:53 Sunny 77 25 67 19.4 71 71 SE 17 28 29.85 1011 10 16 0.00 0.00
8:53 am 08:53 Sunny 79 26.1 67 19.4 67 67 SSE 17 28 29.87 1012 10 16 0.00 0.00
9:53 am 09:53 Sunny 82 27.8 67 19.4 60 60 SSE 16 26 29.87 1012 10 16 0.00 0.00
10:53 am 10:53 undefined 86 30 65 18.3 49 49 S 8 13 29.87 1012 10 16 0.00 0.00
11:53 am 11:53 Sunny 89 31.7 63 17.2 42 42 S 12 19 29.87 1012 10 16 0.00 0.00
12:53 pm 12:53 Sunny 92 33.3 61 16.1 36 36 SSW 9 15 29.86 1011 10 16 0.00 0.00
1:53 pm 13:53 Sunny 93 33.9 60 15.6 33 33 SSE 7 11 29.84 1010 10 16 0.00 0.00
2:53 pm 14:53 Sunny 97 36.1 57 13.9 26 26 S 8 13 29.80 1009 10 16 0.00 0.00
3:53 pm 15:53 Sunny 98 36.7 55 12.8 24 24 S 12 19 29.77 1008 10 16 0.00 0.00
4:53 pm 16:53 Mostly Sunny 99 37.2 55 12.8 23 23 SSE 9 15 29.75 1007 10 16 0.00 0.00
5:04 pm 17:04 Partly Cloudy with Nearby Thunderstorms 98 36.7 56 13.3 24 24 SSE 9 15 29.64 1004 10 16 0.00 0.00
5:32 pm 17:32 Mostly Cloudy with Nearby Thunderstorms 91 32.8 59 15 34 34 SSW 18 30 29.68 1005 10 16 0.00 0.00
5:49 pm 17:49 Mostly Sunny 91 33 57 14 32 32 SSW 14 22 29.67 1005 10 16 0.00 0.00
5:53 pm 17:53 Mostly Sunny 92 33.3 57 13.9 31 31 S 13 20 29.75 1008 10 16 0.00 0.00
6:53 pm 18:53 Partly Cloudy with Nearby Thunderstorms 93 33.9 59 15 32 32 S 18 30 29.77 1008 10 16 0.00 0.00
7:53 pm 19:53 Mostly Cloudy with Nearby Thunderstorms 85 29.4 62 16.7 46 46 ESE 21 33 29.85 1011 8 13 0.00 0.00
8:03 pm 20:03 Mostly Cloudy with Nearby Thunderstorms 84 28.9 62 16.7 48 48 ESE 17 28 29.79 1009 9 14 0.00 0.00
8:31 pm 20:31 Partly Cloudy with Thunderstorms 84 28.9 62 16.7 48 48 SE 13 20 29.78 1009 10 16 0.00 0.00
8:50 pm 20:50 Sunny 84 29 61 16 45 45 SSE 10 17 29.78 1009 10 16 0.00 0.00
8:53 pm 20:53 Sunny 84 28.9 61 16.1 46 46 S 13 20 29.84 1010 10 16 0.00 0.00
9:53 pm 21:53 Partly Cloudy 82 27.8 62 16.7 51 51 SSW 5 7 29.84 1010 10 16 0.00 0.00
10:53 pm 22:53 Clear 82 27.8 61 16.1 49 49 S 9 15 29.85 1011 10 16 0.00 0.00
11:53 pm 23:53 Clear 80 26.7 63 17.2 56 56 S 8 13 29.85 1011 10 16 0.00 0.00

Powered by AerisWeather